Monterey, CA

9:19 PM PDT on July 26, 2017 (GMT -0700)
Monterey Peninsula

Weather History for KMRY - August, 2012

Change the Weather History Date:

Thursday, August 9, 2012

  Actual Average Record
Temperature  
Mean Temperature 57 °F 61 °F  
Max Temperature 62 °F 68 °F 87 °F (2002)
Min Temperature 52 °F 54 °F 49 °F (2009)
Degree Days  
Heating Degree Days 8    
Month to date heating degree days 54  
Since 1 June heating degree days 372  
Since 1 July heating degree days 203  
Cooling Degree Days 0    
Month to date cooling degree days 0  
Year to date cooling degree days 0  
Since 1 June cooling degree days 0  
Growing Degree Days 6 (Base 50)    
Moisture  
Dew Point 52 °F    
Average Humidity 86    
Maximum Humidity 100    
Minimum Humidity 72    
Precipitation  
Precipitation 0.00 in - 0.02 in (2010)
Month to date precipitation 0.02  
Year to date precipitation 7.72  
Since 1 July precipitation 0.07  
Sea Level Pressure  
Sea Level Pressure 29.95 in    
Wind  
Wind Speed 6 mph (West)    
Max Wind Speed 12 mph    
Max Gust Speed 24 mph    
Visibility 5 miles    
Events Fog    
T = Trace of Precipitation, MM = Missing Value Source: NWS Daily Summary

Daily Weather History Graph

Daily Weather History Graph

Search for Another Location

Airport or City:

Trip Planner

Search our weather history database for the weather conditions in past years. The results will help you decide how hot, cold, wet, or windy it might be!

Date:

Astronomy

Aug. 09, 2012 Rise Set
Actual Time 6:20 AM PDT 8:04 PM PDT
Civil Twilight 5:52 AM PDT 8:32 PM PDT
Nautical Twilight 5:18 AM PDT 9:05 PM PDT
Astronomical Twilight 4:43 AM PDT 9:41 PM PDT
Moon No Moon Rise 1:52 PM PDT (8/9)
Length of Visible Light 14h 39m
Length of Day
13h 44m
Waning Gibbous, 50% of the Moon is Illuminated
Aug 9
Waning Gibbous
Aug 17
New
Aug 24
First Quarter
Aug 31
Full
Sep 8
Last Quarter

Hourly Weather History & Observations

Time (PDT) Temp. Dew Point Humidity Pressure Visibility Wind Dir Wind Speed Gust Speed Precip Events Conditions
12:54 AM 55.0 °F 52.0 °F 89% 30.01 in 8.0 mi West 5.8 mph - N/A   Overcast
1:08 AM 53.6 °F 51.8 °F 94% 29.97 in 7.0 mi West 4.6 mph - N/A   Overcast
1:54 AM 53.1 °F 52.0 °F 96% 30.00 in 3.0 mi West 4.6 mph - N/A   Overcast
2:01 AM 53.6 °F 51.8 °F 94% 29.96 in 2.5 mi West 3.5 mph - N/A   Overcast
2:09 AM 53.6 °F 51.8 °F 94% 29.96 in 4.0 mi West 3.5 mph - N/A   Overcast
2:52 AM 53.6 °F 51.8 °F 94% 29.95 in 1.8 mi WNW 4.6 mph - N/A   Overcast
2:54 AM 53.1 °F 51.1 °F 93% 29.98 in 1.5 mi West 4.6 mph - N/A   Overcast
3:07 AM 53.6 °F 51.8 °F 94% 29.95 in 1.5 mi West 3.5 mph - N/A   Overcast
3:40 AM 53.6 °F 51.8 °F 94% 29.94 in 3.0 mi West 4.6 mph - N/A   Overcast
3:49 AM 51.8 °F 51.8 °F 100% 29.94 in 1.8 mi West 4.6 mph - N/A   Overcast
3:54 AM 52.0 °F 51.1 °F 97% 29.97 in 1.0 mi West 3.5 mph - N/A   Overcast
4:03 AM 51.8 °F 51.8 °F 100% 29.93 in 0.8 mi West 3.5 mph - N/A   Mist
4:24 AM 51.8 °F 51.8 °F 100% 29.93 in 0.2 mi Calm Calm - N/A Fog Fog
4:35 AM 51.8 °F 51.8 °F 100% 29.93 in 0.5 mi Calm Calm - N/A Fog Fog
4:54 AM 52.0 °F 51.1 °F 97% 29.97 in 0.5 mi West 3.5 mph - N/A Fog Fog
5:06 AM 51.8 °F 51.8 °F 100% 29.94 in 0.2 mi Calm Calm - N/A Fog Fog
5:20 AM 51.8 °F 51.8 °F 100% 29.94 in 0.5 mi Calm Calm - N/A Fog Fog
5:54 AM 52.0 °F 52.0 °F 100% 29.98 in 0.8 mi WSW 3.5 mph - N/A   Mist
6:43 AM 53.6 °F 51.8 °F 94% 29.96 in 0.2 mi West 5.8 mph - N/A Fog Fog
6:54 AM 53.1 °F 52.0 °F 96% 30.00 in 0.2 mi West 5.8 mph - N/A Fog Fog
7:54 AM 52.0 °F 52.0 °F 100% 30.00 in 0.2 mi WSW 6.9 mph - N/A Fog Fog
8:03 AM 53.6 °F 51.8 °F 94% 29.97 in 0.5 mi West 5.8 mph - N/A Fog Fog
8:13 AM 53.6 °F 51.8 °F 94% 29.96 in 0.8 mi West 4.6 mph - N/A   Overcast
8:25 AM 53.6 °F 51.8 °F 94% 29.96 in 1.8 mi West 4.6 mph - N/A   Overcast
8:31 AM 53.6 °F 53.6 °F 100% 29.96 in 3.0 mi SW 3.5 mph - N/A   Overcast
8:40 AM 53.6 °F 53.6 °F 100% 29.97 in 1.2 mi SW 3.5 mph - N/A   Overcast
8:54 AM 54.0 °F 53.1 °F 97% 30.00 in 1.5 mi SSW 3.5 mph - N/A   Overcast
9:01 AM 53.6 °F 53.6 °F 100% 29.97 in 1.5 mi West 3.5 mph - N/A   Overcast
9:54 AM 55.0 °F 52.0 °F 89% 30.01 in 1.5 mi NW 5.8 mph - N/A   Overcast
10:54 AM 55.9 °F 52.0 °F 87% 30.00 in 1.0 mi WNW 8.1 mph - N/A   Overcast
11:01 AM 55.4 °F 51.8 °F 88% 29.96 in 8.0 mi WNW 8.1 mph - N/A   Overcast
11:30 AM 57.2 °F 51.8 °F 82% 29.96 in 10.0 mi West 8.1 mph - N/A   Scattered Clouds
11:54 AM 57.9 °F 52.0 °F 81% 29.99 in 10.0 mi West 9.2 mph - N/A   Scattered Clouds
12:54 PM 57.9 °F 52.0 °F 81% 29.99 in 10.0 mi WNW 6.9 mph - N/A   Scattered Clouds
1:54 PM 59.0 °F 52.0 °F 78% 29.98 in 10.0 mi NW 8.1 mph - N/A   Scattered Clouds
2:54 PM 61.0 °F 53.1 °F 75% 29.97 in 10.0 mi NW 10.4 mph - N/A   Scattered Clouds
3:54 PM 60.1 °F 52.0 °F 75% 29.95 in 10.0 mi North - - N/A   Clear
4:03 PM 60.8 °F 51.8 °F 72% 29.91 in 10.0 mi NW 10.4 mph - N/A   Scattered Clouds
4:54 PM 61.0 °F 52.0 °F 72% 29.94 in 10.0 mi WNW 10.4 mph - N/A   Scattered Clouds
5:54 PM 60.1 °F 53.1 °F 78% 29.94 in 10.0 mi WNW 8.1 mph - N/A   Clear
6:50 PM 57.2 °F 53.6 °F 88% 29.89 in 9.0 mi WNW 6.9 mph - N/A   Scattered Clouds
6:54 PM 57.9 °F 53.1 °F 84% 29.93 in 9.0 mi Variable 6.9 mph - N/A   Scattered Clouds
7:34 PM 55.4 °F 51.8 °F 88% 29.89 in 9.0 mi WSW 8.1 mph - N/A   Mostly Cloudy
7:54 PM 55.9 °F 52.0 °F 87% 29.93 in 8.0 mi West 9.2 mph - N/A   Scattered Clouds
8:54 PM 55.0 °F 52.0 °F 89% 29.93 in 10.0 mi WSW 10.4 mph - N/A   Mostly Cloudy
9:18 PM 53.6 °F 51.8 °F 94% 29.89 in 10.0 mi WSW 9.2 mph - N/A   Mostly Cloudy
9:38 PM 53.6 °F 51.8 °F 94% 29.89 in 10.0 mi WSW 8.1 mph - N/A   Scattered Clouds
9:54 PM 54.0 °F 51.1 °F 90% 29.92 in 10.0 mi WSW 5.8 mph - N/A   Clear
10:54 PM 55.0 °F 51.1 °F 86% 29.92 in 10.0 mi Calm Calm - N/A   Clear
11:54 PM 55.0 °F 51.1 °F 86% 29.91 in 10.0 mi Calm Calm - N/A   Clear